Location: Oberwangen
(47.4286°N, 8.9679°E)
Time: 23:39:49
(UTC+00:00)

GP-B - Pass Details

Date: 20 June 2021
Orbit: 631 x 634 km, 89.8° (Epoch: 23 July)

Event Time Altitude Azimuth Distance (km) Brightness Sun altitude
Rises 23:17:55 0° 1° (N) 2,943 8.2 -19.1°
Reaches altitude 10° 23:20:09 10° 2° (N) 2,029 7.0 -19.1°
Maximum altitude 23:24:37 87° 92° (E) 641 3.0 -19.1°
Enters shadow 23:26:01 44° 179° (S) 878 3.3 -19.1°
